This is the latest recevied weather packets stored in our database for station/object KF4WSW-13. If no packets are shown the sender has not sent any weather packets the latest 10 day(s).
| Time | Temp. | Humidity | Pressure | Rain* | Wind** | Luminosity | Snow |
|---|---|---|---|---|---|---|---|
| 1777329460 | 28.89° C | 59% | 1013.5 hPa | 0 mm | - | 51 W/m² | - |
| 1777329157 | 28.89° C | 57% | 1013.4 hPa | 0 mm | - | 53 W/m² | - |
| 1777328854 | 29.44° C | 57% | 1013.4 hPa | 0 mm | - | 80 W/m² | - |
| 1777328552 | 29.44° C | 56% | 1013.2 hPa | 0 mm | - | 94 W/m² | - |
| 1777328251 | 29.44° C | 56% | 1013.4 hPa | 0 mm | - | 83 W/m² | - |
| 1777327949 | 29.44° C | 53% | 1013.1 hPa | 0 mm | - | 77 W/m² | - |
| 1777327647 | 29.44° C | 56% | 1013.1 hPa | 0 mm | - | 61 W/m² | - |
| 1777327343 | 29.44° C | 54% | 1013.2 hPa | 0 mm | - | 65 W/m² | - |
| 1777327040 | 29.44° C | 54% | 1013 hPa | 0 mm | - | 91 W/m² | - |
| 1777326737 | 29.44° C | 52% | 1013 hPa | 0 mm | - | 166 W/m² | - |
| 1777326434 | 30° C | 53% | 1013 hPa | 0 mm | - | 183 W/m² | - |
| 1777326133 | 30° C | 50% | 1013.1 hPa | 0 mm | - | 243 W/m² | - |
| 1777325830 | 30° C | 52% | 1013 hPa | 0 mm | - | 179 W/m² | - |
| 1777325528 | 30° C | 54% | 1013 hPa | 0 mm | - | 165 W/m² | - |
| 1777325225 | 29.44° C | 52% | 1013.2 hPa | 0 mm | - | 120 W/m² | - |
| 1777324921 | 29.44° C | 52% | 1013 hPa | 0 mm | - | 99 W/m² | - |
| 1777324619 | 28.89° C | 66% | 1013 hPa | 0 mm | - | 132 W/m² | - |
| 1777324316 | 28.89° C | 68% | 1013.2 hPa | 0 mm | - | 142 W/m² | - |
| 1777324014 | 30° C | 65% | 1013 hPa | 0 mm | - | 140 W/m² | - |
| 1777323712 | 29.44° C | 60% | 1013.2 hPa | 0 mm | - | 277 W/m² | - |
| 1777323408 | 28.89° C | 65% | 1013.4 hPa | 0 mm | - | 394 W/m² | - |
| 1777323106 | 28.89° C | 64% | 1013.2 hPa | 0 mm | - | 205 W/m² | - |
| 1777322804 | 28.89° C | 64% | 1013.1 hPa | 0 mm | - | 192 W/m² | - |
| 1777322502 | 29.44° C | 63% | 1013.1 hPa | 0 mm | - | 192 W/m² | - |
| 1777322199 | 28.89° C | 60% | 1013.1 hPa | 0 mm | - | 151 W/m² | - |
* Rain latest hour (hover to see other rain measurements)
** Current wind speed in m/s (hover to see current wind gust speed)